Tracking 21474 objects as of 25-Sep-2020
HD Live streaming from Space Station
objects crossing your sky now

OPS 7898 (P/L 4)

Track OPS 7898 (P/L 4) now!
10-day predictions
OPS 7898 (P/L 4) is classified as:


NORAD ID: 5682
Int'l Code: 1971-110E
Perigee: 982.8 km
Apogee: 998.9 km
Inclination: 70.0 °
Period: 104.8 minutes
Semi major axis: 7361 km
RCS: Unknown
Launch date: December 14, 1971
Source: United States (US)
Launch site: AIR FORCE WESTERN TEST RANGE (AFWTR)
aabbcc
Your satellite tracking list
Your tracking list is empty




NASA's NSSDC Master Catalog

Two Line Element Set (TLE):
1  5682U 71110E   20269.49713246 -.00000054 +00000-0 -37568-5 0  9991
2  5682 069.9927 358.9819 0010950 271.8887 088.0953 13.74421537057882
Source of the keplerian elements: McCants